Flag Weather past 2 weeks in Zhengzhou, Henan, China

Now
45 °F

Light rain. Fog.


Feels Like: 39 °F
Forecast: 39 / 48 °F
Wind: 10 mph from North

Location: Zhengzhou Airport

Current Time: Nov 27, 2014 at 1:49:44 PM

Latest Report: Nov 27, 2014 at 1:00 PM


Visibility: 0 mi

Pressure: 30.07 "Hg

Humidity: 93%

Dew point: 43 °F

Location of ZhengzhouLocation

Historic Weather in Zhengzhou — Graph

°F

Zhengzhou temperature yesterday

Maximum temperature yesterday: 54 °F (at 12:00 PM)
Minimum temperature yesterday: 37 °F (at 4:00 AM)
Average temperature yesterday: 46 °F

Past Weeks' High & Low Weather Summary

 TemperatureHumidityPressure
High63 °F (Nov 12, 2:00 PM)100% (Nov 15, 9:00 PM)30.54 "Hg (Nov 15, 9:00 PM)
Low32 °F (Nov 17, 6:00 AM)12% (Nov 12, 3:00 PM)29.95 "Hg (Nov 26, 3:00 PM)
Average48 °F63%30.24 "Hg
* Reported Nov 12 12:00 Noon — Nov 27 12:00 Noon, Zhengzhou, Weather by CustomWeather, © 2014

Note: Actual official high and low records may vary slightly from our data, if they occured in-between our weather recording intervals... More about our weather records

Advertising

Zhengzhou weather history for previous 24 hours

 ConditionsComfort  
Time TempWeatherWind HumidityBarometerVisibility
12:00 PM
Nov 27
46 °FLight rain. Fog.8 mph87%30.09 "Hg1 mi
11:00 AM46 °FLight rain. Fog.8 mph93%30.09 "Hg1 mi
10:00 AM46 °FLight rain. Fog.6 mph93%30.12 "Hg0 mi
9:00 AM45 °FLight rain. Fog.6 mph93%30.12 "Hg1 mi
8:00 AM43 °FFog.3 mph100%30.09 "Hg1 mi
7:00 AM43 °FFog.1 mph100%30.07 "Hg1 mi
6:00 AM43 °FFog.1 mph93%30.07 "Hg0 mi
5:00 AM39 °FFog.1 mph93%30.07 "Hg0 mi
4:00 AM37 °FFog.No wind100%30.07 "Hg0 mi
3:00 AM43 °FFog.1 mph93%30.04 "Hg1 mi
2:00 AM43 °FFog.1 mph93%30.07 "Hg1 mi
1:00 AM45 °FFog.3 mph93%30.07 "Hg1 mi
12:00 AM43 °FFog.1 mph87%30.07 "Hg1 mi
10:00 PM
Nov 26
46 °FFog.3 mph93%30.07 "Hg1 mi
9:00 PM46 °FFog.3 mph93%30.07 "Hg1 mi
8:00 PM48 °FFog.3 mph87%30.04 "Hg2 mi
7:00 PM48 °FFog.3 mph87%30.01 "Hg2 mi
6:00 PM48 °FFog.3 mph87%30.01 "Hg1 mi
5:00 PM50 °FFog.8 mph82%29.98 "Hg1 mi
4:00 PM50 °FFog.6 mph82%29.95 "Hg1 mi
3:00 PM52 °FFog.10 mph77%29.95 "Hg1 mi
2:00 PM52 °FFog.8 mph77%29.98 "Hg1 mi
1:00 PM52 °FHaze.8 mph72%29.98 "Hg1 mi
Weather by CustomWeather, © 2014

See weather overviewHow to use our weather pages